Location: York
(31.8935°S, 116.7682°E)
Time: 09:09:15
(UTC+08:00)

N. Korean satellite - Pass Details

Date: 19 May 2021
Orbit: 450 x 500 km, 97.2° (Epoch: 13 June)

Event Time Altitude Azimuth Distance (km) Brightness Sun altitude
Rises 18:32:59 0° 195° (SSW) 2,629 10.3 -15.2°
Reaches altitude 10° 18:36:18 10° 227° (SW) 1,732 9.8 -15.8°
Maximum altitude 18:37:41 12° 249° (WSW) 1,614 10.0 -16.1°
Drops below altitude 10° 18:39:04 10° 271° (W) 1,720 10.6 -16.4°
Sets 18:42:20 0° 303° (WNW) 2,585 11.6 -17.1°
